contact:dominique.lefevre@mio.osupytheas.fr, maurice.libes@osupytheas.fr
Project:EMSO Ligure-ouest http://www.emso-fr.org/EMSO-France
Sensor Aquadopp, line 13 Serial AQD14315 
DOI : "https://doi.org/10.17882/74513; https://doi.org/10.17882/83244" 
Title:EMSO Ligure Ouest : Data ligne ALBATROSS capteur AQUADOPP - deploiement 2021
Id,Date,Profondeur,Latitude,Longitude,X_East,Y_North,Z_Up,Amplitude_X,Amplitude_Y,Amplitude_Z,Batterie,SoundSpeed,Heading,Pitch,Roll,Pressure,Temperature,Speed,Direction
, , m, degrees North, degrees East, m.s-1, m.s-1,m.s-1, 1, 1, 1, Volt, m.s-1, degree, degree, degree, dbar, degree_C, m.s-1, degree
09,2022-05-05T21:30:00,2000.0,42.79,6.0312,0.028,0.002,-0.02,60.0,58.0,64.0,11.7,1504.6,331.6,-1.0,1.0,1990.64,13.27,0.028,85.9
09,2022-05-05T22:00:00,2000.0,42.79,6.0312,0.004,0.007,0.014,59.0,55.0,57.0,11.7,1504.6,337.2,-0.9,1.0,1990.703,13.27,0.008,29.7
09,2022-05-05T22:30:00,2000.0,42.79,6.0312,0.009,0.021,-0.007,62.0,57.0,60.0,11.7,1504.6,334.1,-0.6,1.0,1990.662,13.27,0.022,23.2
09,2022-05-05T23:00:00,2000.0,42.79,6.0312,0.016,0.003,-0.001,59.0,58.0,58.0,11.8,1504.6,338.4,-0.6,1.1,1990.633,13.27,0.016,79.4
09,2022-05-06T00:00:00,2000.0,42.79,6.0312,0.024,0.0,0.009,60.0,58.0,59.0,11.8,1504.6,335.4,-0.9,1.0,1990.643,13.27,0.024,90.0
09,2022-05-06T00:30:00,2000.0,42.79,6.0312,0.017,0.025,-0.005,63.0,57.0,60.0,11.8,1504.6,341.3,-0.4,1.0,1990.627,13.27,0.03,34.2
09,2022-05-06T01:00:00,2000.0,42.79,6.0312,0.018,0.008,-0.005,64.0,55.0,57.0,11.7,1504.6,343.4,-0.5,1.1,1990.621,13.27,0.019,66.0
09,2022-05-06T01:30:00,2000.0,42.79,6.0312,0.027,0.004,-0.003,61.0,57.0,59.0,11.8,1504.6,348.4,-0.5,1.1,1990.6,13.27,0.027,81.6
09,2022-05-06T02:00:00,2000.0,42.79,6.0312,0.011,0.015,0.007,58.0,55.0,56.0,11.8,1504.6,347.0,-0.7,1.1,1990.601,13.27,0.018,36.3
09,2022-05-06T02:30:00,2000.0,42.79,6.0312,0.03,0.016,0.002,59.0,59.0,60.0,11.7,1504.6,353.2,-0.7,1.1,1990.547,13.27,0.034,61.9
09,2022-05-06T03:00:00,2000.0,42.79,6.0312,0.035,0.022,0.004,61.0,54.0,60.0,11.8,1504.6,350.1,-0.5,1.1,1990.54,13.27,0.041,57.8
09,2022-05-06T03:30:00,2000.0,42.79,6.0312,0.024,0.016,-0.005,63.0,56.0,61.0,11.8,1504.6,354.5,-0.9,1.0,1990.522,13.27,0.028,56.3
09,2022-05-06T04:00:00,2000.0,42.79,6.0312,0.029,0.018,-0.025,58.0,59.0,58.0,11.8,1504.6,353.6,-0.8,1.1,1990.462,13.27,0.034,58.2
09,2022-05-06T04:30:00,2000.0,42.79,6.0312,0.036,0.008,-0.024,62.0,55.0,57.0,11.8,1504.6,354.5,-0.5,1.1,1990.462,13.27,0.036,77.5
09,2022-05-06T05:00:00,2000.0,42.79,6.0312,0.022,0.016,-0.011,60.0,56.0,58.0,11.8,1504.6,355.4,-0.7,1.1,1990.487,13.27,0.027,54.0
09,2022-05-06T05:30:00,2000.0,42.79,6.0312,0.033,0.007,0.01,58.0,56.0,56.0,11.8,1504.6,349.9,-0.8,1.1,1990.466,13.27,0.033,78.0
09,2022-05-06T06:00:00,2000.0,42.79,6.0312,0.011,0.011,-0.013,61.0,57.0,57.0,11.7,1504.6,356.4,-0.6,1.1,1990.477,13.27,0.015,45.0
09,2022-05-06T06:30:00,2000.0,42.79,6.0312,0.047,0.004,0.006,62.0,53.0,60.0,11.8,1504.6,346.2,-0.4,1.1,1990.471,13.27,0.047,85.1
09,2022-05-06T07:00:00,2000.0,42.79,6.0312,0.055,0.007,0.0,57.0,54.0,60.0,11.8,1504.6,350.8,-1.0,1.0,1990.457,13.27,0.055,82.7
09,2022-05-06T07:30:00,2000.0,42.79,6.0312,0.009,0.0,-0.031,57.0,54.0,58.0,11.8,1504.6,351.6,-0.6,1.2,1990.468,13.27,0.009,90.0
09,2022-05-06T08:00:00,2000.0,42.79,6.0312,0.002,0.028,0.01,60.0,56.0,55.0,11.7,1504.6,351.4,-0.8,1.1,1990.497,13.27,0.028,4.1
09,2022-05-06T08:30:00,2000.0,42.79,6.0312,0.032,0.015,-0.001,59.0,56.0,59.0,11.8,1504.6,353.5,-0.7,1.0,1990.474,13.27,0.035,64.9
09,2022-05-06T09:00:00,2000.0,42.79,6.0312,0.02,0.01,0.028,62.0,61.0,59.0,11.7,1504.6,351.5,-0.6,1.1,1990.481,13.27,0.022,63.4
09,2022-05-06T09:30:00,2000.0,42.79,6.0312,0.031,0.008,-0.015,57.0,55.0,60.0,11.8,1504.6,350.6,-1.0,1.0,1990.485,13.27,0.032,75.5
09,2022-05-06T10:00:00,2000.0,42.79,6.0312,0.014,0.001,-0.008,60.0,54.0,59.0,11.7,1504.6,356.1,-0.8,1.1,1990.491,13.27,0.014,85.9
09,2022-05-06T10:30:00,2000.0,42.79,6.0312,0.012,0.018,0.002,60.0,56.0,59.0,11.7,1504.6,357.1,-0.6,1.0,1990.465,13.27,0.021,33.7
09,2022-05-06T11:00:00,2000.0,42.79,6.0312,0.026,-0.004,-0.014,60.0,57.0,61.0,11.7,1504.6,356.1,-0.8,1.1,1990.444,13.27,0.026,98.7
09,2022-05-06T11:30:00,2000.0,42.79,6.0312,0.032,-0.002,-0.015,58.0,55.0,61.0,11.8,1504.6,355.4,-0.8,1.1,1990.457,13.27,0.032,93.6
09,2022-05-06T12:00:00,2000.0,42.79,6.0312,0.023,0.005,-0.024,61.0,56.0,59.0,11.7,1504.6,355.4,-0.7,1.1,1990.393,13.27,0.023,77.7
09,2022-05-06T13:00:00,2000.0,42.79,6.0312,0.036,0.024,-0.015,58.0,56.0,62.0,11.8,1504.6,353.5,-0.8,1.0,1990.4,13.27,0.043,56.3
09,2022-05-06T13:30:00,2000.0,42.79,6.0312,0.011,-0.012,-0.011,60.0,55.0,59.0,11.8,1504.6,354.2,-0.8,1.0,1990.399,13.27,0.016,137.5
09,2022-05-06T14:00:00,2000.0,42.79,6.0312,0.014,0.016,-0.005,59.0,56.0,60.0,11.8,1504.6,352.8,-0.6,1.0,1990.384,13.27,0.021,41.2
09,2022-05-06T14:30:00,2000.0,42.79,6.0312,0.019,-0.002,-0.012,58.0,54.0,58.0,11.7,1504.6,352.4,-0.8,1.1,1990.333,13.27,0.019,96.0
09,2022-05-06T15:00:00,2000.0,42.79,6.0312,0.028,0.016,-0.005,58.0,58.0,59.0,11.8,1504.6,353.2,-0.8,1.1,1990.365,13.27,0.032,60.3
09,2022-05-06T15:30:00,2000.0,42.79,6.0312,0.019,0.022,0.021,64.0,57.0,58.0,11.8,1504.6,353.6,-0.6,1.1,1990.351,13.27,0.029,40.8
09,2022-05-06T16:00:00,2000.0,42.79,6.0312,0.029,0.0,-0.045,60.0,56.0,60.0,11.8,1504.6,357.6,-0.8,1.1,1990.356,13.27,0.028,90.0
09,2022-05-06T16:30:00,2000.0,42.79,6.0312,0.024,0.035,-0.014,63.0,57.0,58.0,11.8,1504.6,358.2,-0.6,1.1,1990.367,13.27,0.042,34.4
09,2022-05-06T17:00:00,2000.0,42.79,6.0312,0.043,0.008,-0.017,63.0,57.0,59.0,11.8,1504.6,0.7,-0.7,1.0,1990.363,13.27,0.043,79.5
09,2022-05-06T17:30:00,2000.0,42.79,6.0312,0.008,0.016,-0.032,62.0,58.0,62.0,11.7,1504.6,3.7,-0.6,1.1,1990.367,13.27,0.017,26.6
09,2022-05-06T18:00:00,2000.0,42.79,6.0312,0.031,0.004,-0.017,63.0,57.0,60.0,11.7,1504.6,6.3,-1.0,1.0,1990.408,13.27,0.031,82.7
09,2022-05-06T18:30:00,2000.0,42.79,6.0312,0.042,0.025,-0.015,59.0,58.0,60.0,11.7,1504.6,6.5,-0.6,1.0,1990.386,13.27,0.048,59.2
09,2022-05-06T19:00:00,2000.0,42.79,6.0312,0.04,0.015,-0.02,62.0,58.0,59.0,11.7,1504.6,6.5,-0.9,1.1,1990.427,13.27,0.042,69.4
09,2022-05-06T19:30:00,2000.0,42.79,6.0312,0.033,0.028,0.001,59.0,57.0,57.0,11.7,1504.6,4.4,-0.6,1.1,1990.439,13.27,0.043,49.7
09,2022-05-06T20:00:00,2000.0,42.79,6.0312,0.026,0.002,0.0,60.0,57.0,58.0,11.8,1504.6,5.4,-0.6,1.1,1990.488,13.27,0.026,85.6
09,2022-05-06T20:30:00,2000.0,42.79,6.0312,0.04,0.012,-0.045,61.0,60.0,59.0,11.7,1504.6,7.2,-0.5,1.1,1990.47,13.27,0.041,73.3
09,2022-05-06T21:00:00,2000.0,42.79,6.0312,0.047,0.012,-0.006,61.0,60.0,61.0,11.7,1504.6,9.6,-0.7,1.1,1990.523,13.27,0.048,75.7
